Location: Forst
(46.9333°N, 15.4333°E)
Time: 05:50:21
(UTC+00:00)

Envisat - Pass Details

Date: 01 October 2021
Orbit: 764 x 766 km, 98.2° (Epoch: 27 October)

Event Time Altitude Azimuth Distance (km) Brightness Sun altitude
Rises 03:33:05 0° 20° (NNE) 3,243 6.7 -15.1°
Reaches altitude 10° 03:35:34 10° 29° (NNE) 2,311 6.0 -14.7°
Maximum altitude 03:40:18 37° 97° (E) 1,170 4.6 -13.9°
Drops below altitude 10° 03:44:58 10° 164° (SSE) 2,294 5.5 -13.1°
Sets 03:47:25 0° 173° (S) 3,216 6.2 -12.7°
